Tracking 31027 objects as of 19-Jul-2025
HD Live streaming from Space Station
objects crossing your sky now

BNU-1

Track BNU-1 now!
10-day predictions


NORAD ID: 44529
Int'l Code: 2019-059B
Perigee: 731.2 km
Apogee: 748.5 km
Inclination: 98.6 °
Period: 99.5 minutes
Semi major axis: 7110 km
RCS: Unknown
Launch date: September 12, 2019
Source: People's Republic of China (PRC)
Launch site: Taiyaun Space Center, China (TSC)
Your satellite tracking list
CZ-4C DEB
Track 1 satellite(s)




NASA's NSSDC Master Catalog

Two Line Element Set (TLE):
1 44529U 19059B   25199.84370869  .00000408  00000-0  12258-3 0  9992
2 44529  98.5693 318.6505 0012155 305.1243  54.8810 14.47839758308740
Source of the keplerian elements: AFSPC